Current weather by "City, St" or "zip code"  
 

Current Conditions: Cairns Army Air Field / Ozark, AL

A Few Clouds


78.0 F

Last Updated on Oct 21 2021, 11:56 am CDT
Humidity: 66%
Wind Speed: N 0.0 mph
Barometer 30.17 in
Dewpoint: 65.7 F
Visibility: 10.00 mi
Precip: --
Heat Index: NA
Wind Chill: NA
Current conditions at:

Cairns Army Air Field / Ozark, AL (KOZR)

Lat: 31.27672 Lon: 85.71099

Local Radar Image active severe weather and emergency alerts image image weather storm and storm spotter reports image weather observation monitoring service image
Local
Radar
Active
Alerts
Storm Reports Obs
Monitoring

Sign-up For Email & Text Message Weather Alert Notification Services



Advertise Here

Observation History for Cairns Army Air Field / Ozark, AL


Time Wind
(mph)
Vis
(mi)
Weather Precip (in) Temperature (F) Relative
Humidity
Wind
Chill
(F)
Heat
Index
(F)
Pressure
Air Dwpt altimeter
(in)
sea level
(mb)
Rmks
11:56 am CDT N 0.0 10.00 A Few Clouds -- 78.0 65.7 66% NA NA 30.17 1021.7
10:56 am CDT S 6.9 10.00 A Few Clouds -- 77.0 64.6 66% NA NA 30.18 1022.0
9:56 am CDT S 5.8 10.00 Fair -- 75.0 63.3 67% NA NA 30.18 1022.0
8:56 am CDT SE 3.5 10.00 Fair -- 70.0 61.2 74% NA NA 30.18 1022.0
7:56 am CDT N 0.0 10.00 Fair -- 65.0 61.9 90% NA NA 30.15 1021.1
5:56 am CDT N 0.0 10.00 Mostly Cloudy -- 64.0 63.1 96% NA NA 30.15 1021.0
4:56 am CDT N 0.0 10.00 Mostly Cloudy -- 63.0 62.6 99% NA NA 30.14 1020.7
3:56 am CDT N 0.0 10.00 Mostly Cloudy -- 64.0 61.7 94% NA NA 30.14 1020.7
2:56 am CDT N 0.0 10.00 A Few Clouds -- 63.0 61.7 95% NA NA 30.15 1021.0
1:56 am CDT N 3.5 10.00 Fair -- 64.0 62.1 95% NA NA 30.15 1021.0
12:56 am CDT N 0.0 10.00 Fair -- 64.0 61.5 92% NA NA 30.16 1021.3
11:56 pm CDT SE 3.5 10.00 Fair -- 66.0 61.7 86% NA NA 30.17 1021.7
10:56 pm CDT N 0.0 10.00 Fair -- 68.0 61.2 79% NA NA 30.20 M
9:56 pm CDT SE 4.6 10.00 Fair -- 68.0 61.3 80% NA NA 30.19 M
8:56 pm CDT N 0.0 10.00 Partly Cloudy -- 68.0 60.4 76% NA NA 30.19 M
7:56 pm CDT E 4.6 10.00 Fair -- 69.0 61.7 77% NA NA 30.17 M
6:56 pm CDT E 4.6 10.00 Fair -- 71.0 61.2 70% NA NA 30.15 1021.1
5:56 pm CDT N 0.0 10.00 Fair -- 75.0 61.3 62% NA NA 30.16 1021.4
4:56 pm CDT E 3.5 10.00 Fair -- 78.0 59.9 53% NA NA 30.16 1021.4
3:56 pm CDT E 5.8 10.00 Partly Cloudy -- 79.0 58.8 50% NA NA 30.16 1021.4
2:56 pm CDT NE 3.5 10.00 A Few Clouds -- 82.0 59.4 47% NA 82 30.17 1021.7
1:56 pm CDT E 6.9 10.00 Fair -- 81.0 59.2 48% NA 81 30.19 1022.4
12:56 pm CDT SE 5.8 10.00 Fair -- 79.0 58.3 49% NA NA 30.22 1023.4

Regional Weather Observation


SCHELL AHP, AL (KSXS)

Partly Cloudy
78.0 F

Fort Rucker, Lowe Army Heliport, AL (KLOR)

Mostly Cloudy
78.0 F

Cairns Army Air Field / Ozark, AL (KOZR)

A Few Clouds
78.0 F

Hanchey AHP / Ozark, AL (KHEY)

Mostly Cloudy
78.0 F

Troy, Troy Municipal Airport, AL (KTOI)

Overcast
72.0 F

Dothan, Dothan Regional Airport, AL (KDHN)

Overcast
78.0 F

Advertise Here


Advertise Here